Content
SEND FEEDBACK

Daily
Averages
Monthly
Summary
United States of America

INARAJAN, GUAM


Home > North America > United States > Guam
Elevation: 85 meters     Latitude: 13 18N     Longitude: 144 44E

WEATHER
 
SELECT A DAY
Number of Records: 356,396;   Date Range: 1/1/95 - 12/17/14
 
SHARE

PRINT THIS DATA

[ ← Previous Day ]
WEATHER ALMANAC - 4 MARCH, 2014
[ Next Day → ]
[ °F ]   °C
Weather ElementAverageHighLow
Temperature25.6 °C27.2 °C (12:58 pm)24.3 °C (11:58 pm)
Dewpoint23.8 °C25 °C (12:23 am)21 °C (5:58 pm)
Humidity90 %100 % (12:23 am)75 % (4:58 pm)
Barometer1005.4 hPa1008.1 hPa (9:43 am)1003 hPa (4:58 am)
Wind Speed27.4 km/h40.7 km/h (8:58 am)
Wind Gust59.2 km/h (8:58 am)
Weather ElementAverage
Visibility15.8 km
Wind DirectionNNW (329.1 °)

Weather ElementTotal
Precipitation2.54 mm
Cooling Degree Days7.4 (Base 18.3)
Growing Degree Days15.8 (Base 10)
Averaged from 79 records on 4 March, 2014
WEATHER CONDITIONS BREAKOUT
WIND DIRECTION BREAKOUT
WEATHER BY HOUR - 4 MARCH, 2014
[ °F ]   °C
Local TimeTemperatureDewpointHumidityBarometerVisibilityWind DirectionWind SpeedGust SpeedPrecipitationEventsConditions
12:23 AM25 °C25 °C100 %1005.8 hPa16.1 kmNNW (330°)22.2 km/h35.2 km/hOvercast
12:58 AM26 °C25 °C94 %1004.1 hPa16.1 kmNNW (340°)25.9 km/h38.9 km/hOvercast
1:15 AM26 °C25 °C94 %1005.1 hPa16.1 kmNorth (350°)20.4 km/h44.4 km/hRainLight Rain
1:37 AM25 °C24 °C94 %1004.7 hPa16.1 kmNNW (330°)20.4 km/h33.3 km/hMostly Cloudy
1:42 AM25 °C24 °C94 %1004.7 hPa16.1 kmNorth (350°)16.7 km/h31.5 km/hOvercast
1:52 AM25 °C24 °C94 %1004.7 hPa16.1 kmNNW (340°)18.5 km/h31.5 km/hOvercast
1:58 AM25 °C24 °C94 %1003.7 hPa16.1 kmNNW (330°)20.4 km/h31.5 km/h0 mmOvercast
2:08 AM25 °C24 °C94 %1004.7 hPa16.1 kmNNW (340°)24.1 km/h31.5 km/hOvercast
2:13 AM25 °C24 °C94 %1004.7 hPa16.1 kmNNW (340°)20.4 km/h37 km/hOvercast
2:18 AM25 °C24 °C94 %1004.7 hPa16.1 kmNorth (350°)20.4 km/h37 km/hOvercast
2:23 AM25 °C24 °C94 %1004.7 hPa16.1 kmNNW (340°)20.4 km/h31.5 km/hOvercast
2:44 AM25 °C24 °C94 %1004.7 hPa16.1 kmNorth (350°)22.2 km/h37 km/hLight Drizzle
2:54 AM25 °C24 °C94 %1004.7 hPa8 kmNorth (10°)18.5 km/h27.8 km/hRainLight Rain
2:58 AM25 °C24 °C94 %1003.7 hPa8 kmNNW (340°)18.5 km/h33.3 km/h0.76 mmRainLight Rain
3:03 AM25 °C24 °C94 %1004.7 hPa14.5 kmNNW (340°)24.1 km/h33.3 km/hRainLight Rain
3:06 AM25 °C24 °C94 %1004.7 hPa16.1 kmNorth (350°)27.8 km/h38.9 km/hOvercast
3:11 AM25 °C24 °C94 %1004.7 hPa16.1 kmNorth (350°)25.9 km/h38.9 km/hOvercast
3:21 AM25 °C24 °C94 %1004.4 hPa16.1 kmNorth (350°)20.4 km/h35.2 km/hMostly Cloudy
3:26 AM25 °C24 °C94 %1004.4 hPa16.1 kmNorth (350°)25.9 km/h35.2 km/hOvercast
3:30 AM25 °C24 °C94 %1004.4 hPa16.1 kmNorth (350°)20.4 km/h35.2 km/hLight Drizzle
3:35 AM25 °C24 °C94 %1004.4 hPa16.1 kmNNW (330°)20.4 km/h33.3 km/hRainLight Rain
3:50 AM25 °C24 °C94 %1004.4 hPa8 kmNNW (330°)31.5 km/hRainHeavy Rain
3:56 AM25 °C24 °C94 %1004.4 hPa16.1 kmNNW (330°)31.5 km/h42.6 km/hOvercast
3:58 AM25 °C24 °C94 %1003.4 hPa16.1 kmNNW (330°)29.6 km/h42.6 km/h1.52 mmOvercast
4:13 AM25 °C24 °C94 %1004.4 hPa16.1 kmNNW (330°)29.6 km/h44.4 km/hOvercast
4:18 AM25 °C24 °C94 %1004.1 hPa16.1 kmNNW (330°)33.3 km/h46.3 km/hMostly Cloudy
4:33 AM25 °C24 °C94 %1004.1 hPa16.1 kmNNW (330°)31.5 km/h44.4 km/hScattered Clouds
4:48 AM25 °C24 °C94 %1004.1 hPa16.1 kmNNW (330°)27.8 km/h46.3 km/hMostly Cloudy
4:58 AM25 °C24 °C94 %1003 hPa16.1 kmNNW (330°)25.9 km/h46.3 km/h0.25 mmMostly Cloudy
5:38 AM25 °C25 °C100 %1004.4 hPa16.1 kmNNW (330°)31.5 km/h50.1 km/hMostly Cloudy
5:48 AM25 °C24 °C94 %1004.4 hPa16.1 kmNNW (330°)29.6 km/h46.3 km/hMostly Cloudy
5:58 AM25 °C25 °C100 %1003.7 hPa16.1 kmNNW (330°)31.5 km/h46.3 km/hMostly Cloudy
6:13 AM25 °C25 °C100 %1005.1 hPa16.1 kmNNW (330°)25.9 km/h44.4 km/hScattered Clouds
6:28 AM25 °C25 °C100 %1005.4 hPa16.1 kmNW (320°)29.6 km/h50.1 km/hMostly Cloudy
6:33 AM25 °C25 °C100 %1005.4 hPa16.1 kmNNW (330°)37 km/h50.1 km/hScattered Clouds
6:38 AM25 °C25 °C100 %1005.4 hPa16.1 kmNNW (330°)37 km/h50.1 km/hScattered Clouds
6:48 AM25 °C25 °C100 %1005.8 hPa16.1 kmNNW (340°)25.9 km/h50.1 km/hMostly Cloudy
6:51 AM25 °C25 °C100 %1005.8 hPa16.1 kmNNW (330°)29.6 km/h50.1 km/hRainLight Rain
6:56 AM25 °C25 °C100 %1006.1 hPa16.1 kmNNW (340°)29.6 km/h53.8 km/hRainLight Rain
6:58 AM25.4 °C24.8 °C96 %1005.1 hPa16.1 kmNNW (340°)29.6 km/h53.8 km/h0 mmRainLight Rain
7:00 AM25 °C25 °C100 %1006.1 hPa16.1 kmNNW (330°)31.5 km/h53.8 km/hMostly Cloudy
7:05 AM25 °C25 °C100 %1006.1 hPa16.1 kmNNW (340°)29.6 km/h53.8 km/hMostly Cloudy
7:27 AM26 °C24 °C89 %1006.4 hPa16.1 kmNNW (340°)29.6 km/h51.8 km/hRainLight Rain
7:32 AM25 °C25 °C100 %1006.4 hPa16.1 kmNorth (350°)31.5 km/h51.8 km/hRainLight Rain
7:38 AM26 °C25 °C94 %1006.4 hPa16.1 kmNNW (340°)25.9 km/h50.1 km/hScattered Clouds
7:58 AM25.8 °C24.4 °C92 %1005.8 hPa16.1 kmNNW (340°)35.2 km/h53.8 km/h0 mmScattered Clouds
8:28 AM26 °C25 °C94 %1007.1 hPa16.1 kmNNW (330°)27.8 km/h44.4 km/hMostly Cloudy
8:33 AM26 °C24 °C89 %1007.1 hPa16.1 kmNNW (340°)25.9 km/h51.8 km/hScattered Clouds
8:48 AM26 °C24 °C89 %1007.5 hPa16.1 kmNNW (330°)33.3 km/h48.1 km/hMostly Cloudy
8:58 AM25.8 °C23.6 °C88 %1006.4 hPa16.1 kmNNW (330°)40.7 km/h59.2 km/hScattered Clouds
9:18 AM26 °C24 °C89 %1007.8 hPa16.1 kmNNW (330°)31.5 km/h55.5 km/hMostly Cloudy
9:23 AM26 °C24 °C89 %1007.8 hPa16.1 kmNNW (340°)27.8 km/h55.5 km/hScattered Clouds
9:33 AM26 °C24 °C89 %1007.8 hPa16.1 kmNNW (330°)24.1 km/h50.1 km/hMostly Cloudy
9:43 AM26 °C24 °C89 %1008.1 hPa16.1 kmNNW (330°)33.3 km/h55.5 km/hScattered Clouds
9:58 AM26.6 °C22.8 °C80 %1007.1 hPa16.1 kmNNW (340°)37 km/h55.5 km/hPartly Cloudy
10:58 AM26.6 °C23 °C80 %1006.4 hPa16.1 kmNNW (330°)37 km/h50.1 km/hPartly Cloudy
11:23 AM27 °C23 °C79 %1007.5 hPa16.1 kmNNW (340°)24.1 km/h46.3 km/hMostly Cloudy
11:28 AM27 °C23 °C79 %1007.1 hPa16.1 kmNNW (330°)33.3 km/h46.3 km/hScattered Clouds
11:58 AM27 °C23.2 °C80 %1005.8 hPa16.1 kmNNW (340°)25.9 km/h46.3 km/hScattered Clouds
12:58 PM27.2 °C23.4 °C80 %1005.1 hPa16.1 kmNNW (340°)25.9 km/h40.7 km/hPartly Cloudy
1:18 PM27 °C23 °C79 %1006.1 hPa16.1 kmNNW (330°)29.6 km/h42.6 km/hMostly Cloudy
1:23 PM27 °C23 °C79 %1006.1 hPa16.1 kmNW (320°)29.6 km/h40.7 km/hMostly Cloudy
1:33 PM27 °C23 °C79 %1006.1 hPa16.1 kmNW (320°)27.8 km/h46.3 km/hMostly Cloudy
1:43 PM27 °C24 °C84 %1006.1 hPa16.1 kmNW (320°)25.9 km/h40.7 km/hMostly Cloudy
1:48 PM27 °C24 °C84 %1005.8 hPa16.1 kmNNW (330°)27.8 km/h40.7 km/hScattered Clouds
1:52 PM27 °C23 °C79 %1005.8 hPa16.1 kmNNW (330°)27.8 km/h40.7 km/hRainLight Rain
1:57 PM27 °C23 °C79 %1005.8 hPa16.1 kmNNW (330°)29.6 km/h42.6 km/hRainLight Rain
1:58 PM27 °C23 °C79 %1004.7 hPa16.1 kmNNW (330°)29.6 km/h42.6 km/h0 mmRainLight Rain
2:01 PM27 °C23 °C79 %1005.8 hPa16.1 kmNNW (330°)27.8 km/h42.6 km/hMostly Cloudy
2:58 PM26.8 °C22.7 °C78 %1004.4 hPa16.1 kmNNW (330°)31.5 km/h44.4 km/h0 mmScattered Clouds
3:58 PM26.7 °C22.6 °C78 %1003.7 hPa16.1 kmNNW (330°)29.6 km/h40.7 km/hScattered Clouds
4:58 PM26.2 °C21.4 °C75 %1004.1 hPa16.1 kmNW (320°)29.6 km/h46.3 km/hClear
5:58 PM25.5 °C21 °C76 %1005.1 hPa16.1 kmNW (320°)25.9 km/hClear
6:58 PM25.1 °C21.4 °C80 %1005.8 hPa16.1 kmNW (320°)25.9 km/h37 km/hClear
7:58 PM24.9 °C21.2 °C80 %1006.1 hPa16.1 kmNW (320°)22.2 km/hClear
8:58 PM24.8 °C21.6 °C82 %1006.1 hPa16.1 kmNW (320°)22.2 km/hPartly Cloudy
9:58 PM24.5 °C21.4 °C83 %1006.4 hPa16.1 kmNW (310°)20.4 km/hPartly Cloudy
10:58 PM24.6 °C21.2 °C81 %1006.4 hPa16.1 kmNW (310°)24.1 km/hPartly Cloudy
11:58 PM24.3 °C21 °C82 %1006.4 hPa16.1 kmNW (310°)24.1 km/hClear
Hourly data recorded from PGUA, located 0 kilometers away from Inarajan, Guam







STORIES FROM OUR PARTNERS